SR5NLK-1 Weather Reports


time (UTC)temp
F
wind
direction
speed
knots
gust
knots
rain 1hr
in
rain 24hr
in
rain mn
in
humidity
%
barometer
mb
20260504050502 84 202 4.3 14.8 0.00 0.00 0.00 25 962.0
20260504050002 84 135 7.0 15.6 0.00 0.00 0.00 26 1050.7
20260504045502 84 225 1.7 10.4 0.00 0.00 0.00 26 1043.1
20260504045401 84 180 6.1 10.4 0.00 0.00 0.00 26 1083.3
20260504045002 83 202 4.3 7.0 0.00 0.00 0.00 27 1033.4
20260504044502 82 202 5.2 8.7 0.00 0.00 0.00 28 1055.3
20260504044002 81 180 2.6 8.7 0.00 0.00 0.00 29 1068.1
20260504043502 80 180 3.5 6.1 0.00 0.00 0.00 30 1001.0
20260504043219 78 180 3.5 10.4 0.00 0.00 0.00 31 996.6
20260504043202 77 180 7.8 8.7 0.00 0.00 0.00 32 1081.5
20260504043002 78 180 3.5 10.4 0.00 0.00 0.00 31 996.6
20260504042742 76 225 3.5 7.8 0.00 0.00 0.00 33 1009.3
20260504042740 75 202 11.3 11.3 0.00 0.00 0.00 34 1043.8
20260504042502 77 180 7.8 8.7 0.00 0.00 0.00 32 1081.5
20260504042101 76 202 1.7 7.8 0.00 0.00 0.00 32 1087.7
20260504042009 76 225 3.5 7.8 0.00 0.00 0.00 33 1009.3
20260504042002 76 225 3.5 7.8 0.00 0.00 0.00 33 1009.3
20260504041502 75 202 11.3 11.3 0.00 0.00 0.00 34 1043.8
20260504041002 73 202 2.6 7.0 0.00 0.00 0.00 35 1036.6
20260504040502 71 202 4.3 4.3 0.00 0.00 0.00 38 1049.1
20260504040002 68 202 2.6 6.1 0.00 0.00 0.00 41 1097.2
20260504035502 66 180 1.7 5.2 0.00 0.00 0.00 44 1078.4
20260504035002 63 180 2.6 5.2 0.00 0.00 0.00 47 1045.9
20260504034801 61 157 0.9 5.2 0.00 0.00 0.00 48 1010.3
20260504034502 60 135 2.6 6.1 0.00 0.00 0.00 49 1087.8
20260504034002 58 180 3.5 3.5 0.00 0.00 0.00 50 1036.5
20260504033502 56 112 2.6 5.2 0.00 0.00 0.00 50 1039.7
20260504033002 56 270 1.7 7.0 0.00 0.00 0.00 50 1049.1
20260504032502 56 202 5.2 7.0 0.00 0.00 0.00 50 1094.5
20260504032002 55 202 2.6 6.1 0.00 0.00 0.00 51 1007.3
20260504031501 55 180 3.5 6.1 0.00 0.00 0.00 51 1010.4
20260504031002 55 157 5.2 6.1 0.00 0.00 0.00 51 1004.1
20260504030502 55 157 4.3 5.2 0.00 0.00 0.00 51 1005.8
20260504030002 55 202 2.6 5.2 0.00 0.00 0.00 51 964.4
20260504025502 55 180 2.6 5.2 0.00 0.00 0.00 51 1058.5
20260504025002 55 157 2.6 7.8 0.00 0.00 0.00 51 993.2
20260504024502 55 180 1.7 6.1 0.00 0.00 0.00 51 1043.4
20260504024201 55 180 4.3 5.2 0.00 0.00 0.00 51 991.6
20260504024002 55 180 1.7 5.2 0.00 0.00 0.00 51 1084.7
20260504023502 55 157 3.5 5.2 0.00 0.00 0.00 51 1036.5
20260504023002 56 180 1.7 6.1 0.00 0.00 0.00 50 1055.3
20260504022502 56 157 1.7 3.5 0.00 0.00 0.00 50 1042.8
20260504022002 56 202 3.5 4.3 0.00 0.00 0.00 50 1016.6
20260504021502 56 180 3.5 6.1 0.00 0.00 0.00 50 1042.8
20260504021009 56 180 1.7 3.5 0.00 0.00 0.00 49 1055.4
20260504021002 56 180 1.7 3.5 0.00 0.00 0.00 49 1055.4
20260504020901 57 202 1.7 3.5 0.00 0.00 0.00 49 1097.2
20260504020502 57 180 1.7 3.5 0.00 0.00 0.00 49 1045.0
20260504020002 57 135 1.7 6.1 0.00 0.00 0.00 49 1083.3
20260504015502 57 135 4.3 6.1 0.00 0.00 0.00 49 1033.4
20260504015002 57 180 1.7 6.1 0.00 0.00 0.00 49 1027.1
20260504014512 57 202 6.1 6.1 0.00 0.00 0.00 49
20260504014502 57 202 6.1 6.1 0.00 0.00 0.00 49 1046.0
20260504014002 57 157 2.6 5.2 0.00 0.00 0.00 48 1039.7
20260504013742 57 202 5.2 5.2 0.00 0.00 0.00 48 1011.8
20260504013601 57 157 3.5 5.2 0.00 0.00 0.00 48 1082.9
20260504013502 57 202 5.2 5.2 0.00 0.00 0.00 48 1011.8
20260504013002 58 157 4.3 5.2 0.00 0.00 0.00 48 1039.1
20260504012502 58 202 5.2 7.0 0.00 0.00 0.00 48 1042.8
20260504012002 58 157 2.6 11.3 0.00 0.00 0.00 48 1010.4
20260504011502 58 202 2.6 5.2 0.00 0.00 0.00 47 1056.7
20260504011002 58 180 2.6 4.3 0.00 0.00 0.00 47 968.6
20260504010502 58 202 2.6 5.2 0.00 0.00 0.00 47 1094.1
20260504010302 58 180 1.7 5.2 0.00 0.00 0.00 47 1055.4
20260504010002 58 180 3.5 5.2 0.00 0.00 0.00 47 1084.6
20260504005502 58 180 4.3 5.2 0.00 0.00 0.00 47 1081.5
20260504005002 58 180 5.2 5.2 0.00 0.00 0.00 47 1011.1
20260504004502 58 180 2.6 7.0 0.00 0.00 0.00 46 1058.4
20260504004002 58 157 4.3 5.2 0.00 0.00 0.00 46 994.7
20260504003502 59 202 2.6 5.2 0.00 0.00 0.00 46 1044.6
20260504003002 59 157 5.2 6.1 0.00 0.00 0.00 46 1072.1
20260504002502 59 157 7.0 7.0 0.00 0.00 0.00 46 1075.2
20260504002002 59 157 4.3 4.3 0.00 0.00 0.00 45 1052.3
20260504001503 59 157 2.6 3.5 0.00 0.00 0.00 45 962.3
20260504001002 60 202 1.7 7.0 0.00 0.00 0.00 45 1001.0
20260504000502 60 157 1.7 7.0 0.00 0.00 0.00 45 1042.8
20260504000003 60 180 3.5 5.2 0.00 0.00 0.00 44 1001.0
20260503235702 60 202 3.5 6.1 0.00 0.00 0.00 44 1045.9
20260503235503 60 180 4.3 6.1 0.00 0.00 0.00 44 1080.4
20260503235003 60 157 3.5 7.0 0.00 0.00 0.00 44 1010.4
20260503234503 60 180 1.7 6.1 0.00 0.00 0.00 44 1015.3
20260503234003 60 157 2.6 5.2 0.00 0.00 0.00 44 1094.1
20260503233503 60 157 5.2 5.2 0.00 0.00 0.00 44 1100.3
20260503233003 60 157 3.5 5.2 0.00 0.00 0.00 43 994.7
20260503232503 60 157 2.6 4.3 0.00 0.00 0.00 43 1084.7
20260503232402 60 157 3.5 4.3 0.00 0.00 0.00 43 1052.2
20260503232003 60 157 2.6 4.3 0.00 0.00 0.00 43 1010.4
20260503231503 60 157 3.5 4.3 0.00 0.00 0.00 42 997.8
20260503231003 61 135 2.6 3.5 0.00 0.00 0.00 42 946.6
20260503230503 61 180 1.7 3.5 0.00 0.00 0.00 42 1097.2
20260503230003 61 180 2.6 4.3 0.00 0.00 0.00 42 1054.0
20260503225503 61 157 4.3 5.2 0.00 0.00 0.00 41 956.9
20260503225102 61 157 2.6 4.3 0.00 0.00 0.00 41 1038.3
20260503225003 61 180 1.7 4.3 0.00 0.00 0.00 41 1005.9
20260503224503 61 157 1.7 4.3 0.00 0.00 0.00 41 1039.7
20260503224003 62 157 2.6 5.2 0.00 0.00 0.00 41 977.9
20260503223503 62 180 1.7 5.2 0.00 0.00 0.00 40 1033.4
20260503223003 62 157 1.7 4.3 0.00 0.00 0.00 40 1084.7
20260503222503 62 157 2.6 4.3 0.00 0.00 0.00 40 1054.0
20260503222003 62 180 1.7 4.3 0.00 0.00 0.00 40 1005.8
20260503221802 62 157 0.9 4.3 0.00 0.00 0.00 40 1049.1
20260503221503 62 180 2.6 4.3 0.00 0.00 0.00 39 1016.7
20260503221003 62 180 4.3 4.3 0.00 0.00 0.00 39 968.6
20260503220503 63 225 1.7 2.6 0.00 0.00 0.00 39 1022.1
20260503220003 63 202 2.6 5.2 0.00 0.00 0.00 39 1045.9
20260503215503 63 180 2.6 6.1 0.00 0.00 0.00 39 1084.7
20260503215010 63 202 3.5 4.3 0.00 0.00 0.00 1010.4
20260503215003 63 202 3.5 4.3 0.00 0.00 0.00 38 1010.4
20260503214502 63 180 4.3 5.2 0.00 0.00 0.00 38 1075.2
20260503214003 63 157 2.6 5.2 0.00 0.00 0.00 38 1045.9
20260503213503 63 202 5.2 5.2 0.00 0.00 0.00 38 1004.1
20260503213009 64 180 1.7 5.2 0.00 0.00 0.00 37 1308.4
20260503213003 64 180 1.7 5.2 0.00 0.00 0.00 37 1084.7
20260503212503 64 180 1.7 5.2 0.00 0.00 0.00 37 1084.6
20260503212003 64 180 2.6 3.5 0.00 0.00 0.00 37 1058.5
20260503211503 64 157 0.9 5.2 0.00 0.00 0.00 36 1039.7
20260503211202 64 180 1.7 5.2 0.00 0.00 0.00 36 1045.9
20260503211003 64 180 2.6 5.2 0.00 0.00 0.00 36 1108.3
20260503210503 65 157 1.7 2.6 0.00 0.00 0.00 36 1046.0
20260503210003 65 180 3.5 5.2 0.00 0.00 0.00 35 1010.4
20260503205503 65 157 2.6 3.5 0.00 0.00 0.00 35 1058.5
20260503205003 65 157 1.7 5.2 0.00 0.00 0.00 35 1042.8
20260503204503 66 180 2.6 4.3 0.00 0.00 0.00 35 1081.5
20260503204003 66 180 3.5 7.0 0.00 0.00 0.00 35 952.9
20260503203902 66 157 1.7 7.0 0.00 0.00 0.00 35 997.9
20260503203503 66 180 7.0 7.0 0.00 0.00 0.00 34 1078.4
20260503203003 66 112 2.6 5.2 0.00 0.00 0.00 34 1094.0
20260503202503 66 180 2.6 5.2 0.00 0.00 0.00 34 982.1
20260503202003 66 157 2.6 4.3 0.00 0.00 0.00 33 959.0
20260503201503 66 180 3.5 4.3 0.00 0.00 0.00 33 988.4
20260503201003 67 180 2.6 5.2 0.00 0.00 0.00 33 1039.7
20260503200602 67 157 3.5 5.2 0.00 0.00 0.00 33 1081.5
20260503200503 67 157 3.5 5.2 0.00 0.00 0.00 33 1049.1
20260503200003 67 157 2.6 5.2 0.00 0.00 0.00 33 1007.3
20260503195511 67 180 4.3 5.2 0.00 0.00 0.00 33 1042.8
20260503195503 67 180 4.3 5.2 0.00 0.00 0.00 33 1042.8
20260503195003 67 180 2.6 5.2 0.00 0.00 0.00 32 1087.8
20260503194503 67 157 1.7 5.2 0.00 0.00 0.00 32 1075.2
20260503194003 68 180 3.5 5.2 0.00 0.00 0.00 32 1001.0
20260503193503 68 157 5.2 5.2 0.00 0.00 0.00 32 971.7
20260503193302 68 157 2.6 3.5 0.00 0.00 0.00 32 1078.4
20260503193003 68 157 3.5 5.2 0.00 0.00 0.00 31 1078.4
20260503192503 68 157 3.5 5.2 0.00 0.00 0.00 31 1027.1
20260503192003 68 157 3.5 5.2 0.00 0.00 0.00 31 914.6
20260503191503 68 180 3.5 4.3 0.00 0.00 0.00 31 1033.4
20260503191003 69 135 4.3 5.2 0.00 0.00 0.00 31 1090.9
20260503190503 69 157 3.5 5.2 0.00 0.00 0.00 30 1075.2
20260503190002 69 157 1.7 4.3 0.00 0.00 0.00 30 1039.7
20260503185503 69 180 1.7 6.1 0.00 0.00 0.00 30 1064.7
20260503185003 69 157 3.5 4.3 0.00 0.00 0.00 30 1001.0
20260503184503 70 135 2.6 4.3 0.00 0.00 0.00 29 1052.2
20260503184003 70 157 3.5 4.3 0.00 0.00 0.00 29 1049.1
20260503183503 70 157 2.6 4.3 0.00 0.00 0.00 27 1036.5
20260503183003 71 157 1.7 2.6 0.00 0.00 0.00 27 1036.6
20260503182702 71 202 2.6 3.5 0.00 0.00 0.00 28 1042.8
20260503182510 71 180 69.5 3.5 0.00 0.00 0.00 27 1075.2
20260503182503 71 180 0.9 3.5 0.00 0.00 0.00 27 1075.2
20260503182004 71 157 1.7 3.5 0.00 0.00 0.00 26 1075.3
20260503181504 72 202 1.7 4.3 0.00 0.00 0.00 26 1052.2
20260503181004 73 202 3.5 3.5 0.00 0.00 0.00 25 1039.7
20260503180503 73 180 2.6 4.3 0.00 0.00 0.00 25 1084.7
20260503180003 75 157 2.6 4.3 0.00 0.00 0.00 25 1052.2
20260503175503 75 202 4.3 4.3 0.00 0.00 0.00 24 1072.1
20260503175402 75 157 1.7 3.5 0.00 0.00 0.00 24 1036.5
20260503175003 76 202 2.6 3.5 0.00 0.00 0.00 24 1049.1
20260503174503 76 202 1.7 4.3 0.00 0.00 0.00 24 962.3
20260503174003 77 202 2.6 6.1 0.00 0.00 0.00 23 997.8
20260503173503 78 202 2.6 8.7 0.00 0.00 0.00 23 1072.1
20260503173003 78 225 3.5 5.2 0.00 0.00 0.00 23 1094.1
20260503172504 78 202 5.2 7.8 0.00 0.00 0.00 22 1090.9
20260503172102 79 202 2.6 7.8 0.00 0.00 0.00 22 1089.5
20260503172003 79 202 5.2 8.7 0.00 0.00 0.00 22 1049.1
20260503171503 80 225 7.8 10.4 0.00 0.00 0.00 22 985.3
20260503171011 80 180 2.6 7.0 0.00 0.00 0.00 22 956.0
20260503171003 80 180 2.6 7.0 0.00 0.00 0.00 22 956.0
20260503170503 80 225 4.3 7.8 0.00 0.00 0.00 21 1084.7
20260503151003 84 202 10.4 18.2 0.00 0.00 0.00 20 997.9
20260503150902 84 202 9.6 12.2 0.00 0.00 0.00 20 1049.1
20260503150503 84 270 6.1 13.0 0.00 0.00 0.00 20 1033.4
20260503140303 85 202 7.0 13.9 0.00 0.00 0.00 19 1109.7
20260503131004 85 157 5.2 15.6 0.00 0.00 0.00 19 1097.2
20260503130504 85 135 3.5 15.6 0.00 0.00 0.00 19 1036.6
20260503110504 84 157 13.0 13.0 0.00 0.00 0.00 21 1081.5
20260503090504 82 157 2.6 10.4 0.00 0.00 0.00 25 1055.4
20260503081511 87 157 10.4 13.9 0.00 0.00 0.00 22 1023.0
20260503081504 87 157 10.4 13.9 0.00 0.00 0.00 22 1023.0
20260503081004 88 157 4.3 18.2 0.00 0.00 0.00 22 1084.7
20260503080504 89 202 7.0 13.9 0.00 0.00 0.00 22 1081.5
20260503072703 94 202 9.6 16.5 0.00 0.00 0.00 21 1090.9
20260503072504 94 225 11.3 16.5 0.00 0.00 0.00 21 1047.8
20260503072004 93 180 3.5 7.8 0.00 0.00 0.00 23 1018.7
20260503071504 93 180 7.8 9.6 0.00 0.00 0.00 23 1052.5
20260503071004 93 157 7.8 8.7 0.00 0.00 0.00 23 1042.1
20260503070504 93 202 7.0 8.7 0.00 0.00 0.00 23 1036.4